Location: Le Tano
(47.9476°N, 3.3857°W)
Time: 23:45:15
(UTC+00:00)

Daily predictions for brighter satellites

Satellite Brightness Start Highest point End
(mag) Time Altitude Azimuth Time Altitude Azimuth Time Altitude Azimuth
Okean-O 3.8 16:50:43 10° ESE 16:54:07 22° ENE 16:57:32 10° NNE
Cosmos 2279 Rocket 4.0 16:48:08 10° N 16:54:23 68° ENE 17:00:37 10° SSE
NOAA 6 4.1 16:49:21 10° SSE 16:54:30 87° WSW 16:59:40 10° NNW
Cosmos 304 Rocket 3.8 16:50:14 10° NNW 16:55:05 80° ENE 16:59:53 10° SSE
Cosmos 1536 4.1 16:52:05 10° NNE 16:55:09 20° ENE 16:58:11 10° ESE
ATLAS 3B R/B 3.3 16:49:19 10° NW 16:55:57 64° WSW 17:02:44 10° SSE
BREEZE-M R/B 3.4 16:49:20 10° WSW 16:56:50 82° NNW 17:00:27 10° ENE
COSMOS 2428 2.9 16:51:41 10° S 16:57:14 59° ESE 17:02:50 10° NE
CZ-4B R/B 2.3 16:53:56 10° N 16:57:23 52° WNW 17:00:46 10° SSW
USA 267 3.3 16:52:39 10° ESE 16:59:13 89° NNE 17:05:48 10° NW
Shenzhou-11 Module 3.6 16:58:53 10° SW 17:01:16 26° S 17:03:37 10° ESE
Meteor 1-5 Rocket 4.3 16:55:55 10° N 17:01:23 53° ENE 17:06:39 10° SSE
Meteor 1-28 Rocket 4.5 16:58:07 10° N 17:01:41 41° WNW 17:05:14 10° SW
Cosmos 1634 Rocket 4.4 16:55:33 10° NNW 17:01:42 70° W 17:07:50 10° S
NOSS 3-4 (A) 3.6 16:55:44 10° SW 17:01:47 79° NW 17:08:15 10° NE
NOSS 3-4 (C) 3.6 16:55:51 10° SW 17:01:53 80° NW 17:08:22 10° NE
STARLINK-46 2.8 17:01:22 10° SW 17:04:00 56° SSE 17:06:34 11° ENE
Lacrosse 5 rocket 1.9 17:03:26 10° SSW 17:07:35 46° SE 17:11:25 11° ENE
AQUARIUS 4.4 17:05:45 10° SE 17:10:02 46° ENE 17:14:21 10° N
CZ-4 R/B 2.9 17:10:06 10° E 17:12:13 14° ENE 17:14:19 10° NNE
COSMO-SKYMED 1 4.2 17:11:27 10° NE 17:13:59 15° E 17:16:28 10° SE
Cosmos 2333 4.5 17:08:37 10° SSW 17:14:20 76° WNW 17:20:09 10° NNE
CZ-4B R/B 3.9 17:09:48 10° S 17:15:02 59° WSW 17:20:25 10° NNW
SL-4 R/B 1.8 17:11:53 10° WSW 17:15:36 89° N 17:19:09 13° ENE
Nadezhda 4 Rocket 4.4 17:10:07 10° SSE 17:16:03 44° E 17:21:58 10° NNE
PSLV R/B 4.0 17:13:40 10° NNE 17:17:49 63° ESE 17:21:53 10° S
Cosmos 1666 3.8 17:15:14 10° NNE 17:18:13 22° ENE 17:21:11 10° ESE
Cosmos 2322 4.2 17:14:06 10° SW 17:19:45 60° WNW 17:25:24 10° NNE
YAOGAN 1 4.0 17:20:40 10° ESE 17:23:29 17° ENE 17:26:19 10° NNE
Cosmos 1782 4.2 17:21:25 10° SSW 17:25:11 40° WNW 17:28:58 10° N
Cosmos 2278 Rocket 2.1 17:20:13 10° NNW 17:25:55 76° ENE 17:31:34 10° SSE
Cosmos 1346 Rocket 4.4 17:24:17 10° NNW 17:27:59 38° W 17:31:43 10° SSW
Meteor 2-6 Rocket 4.2 17:24:51 10° SSW 17:30:14 84° W 17:35:42 10° N
BREEZE-M DEB (TANK) 3.7 17:28:30 10° W 17:31:10 31° SW 17:33:11 10° SE
Cosmos 2360 Rocket 3.6 17:26:13 10° WSW 17:31:19 33° NW 17:36:27 10° NNE
Okean 1-7 4.4 17:28:30 10° SE 17:31:32 19° E 17:32:58 16° ENE
Cosmos 1315 Rocket 4.0 17:29:11 10° SSW 17:33:00 43° WNW 17:36:54 10° N
Cosmos 1689 Rocket 4.2 17:30:49 10° N 17:33:28 27° WNW 17:36:06 10° SW
Cosmos 1733 Rocket 3.0 17:30:15 10° N 17:34:39 90° SSE 17:39:03 10° S
Cosmos 2369 Rocket 3.7 17:35:31 10° N 17:38:53 16° NE 17:39:54 15° NE
ATLAS 2AS CENTAUR R/B 3.7 17:32:07 10° WSW 17:39:51 49° NW 17:47:23 11° NE
SL-16 R/B 3.4 17:37:57 10° SSE 17:42:10 22° E 17:44:01 18° ENE
SeaSat 1 4.1 17:45:12 14° NE 17:45:20 14° NE 17:47:55 10° N
NOAA 12 4.0 17:41:29 10° SSE 17:46:45 72° ENE 17:52:02 10° N
Cosmos 2333 Rocket 2.7 17:43:08 10° SW 17:48:48 60° WNW 17:54:31 10° NNE
BREEZE-M DEB (TANK) 2.5 17:45:53 10° W 17:51:07 67° S 17:52:48 24° ESE
Cosmos 2237 Rocket 2.2 17:47:24 10° SSW 17:53:01 65° ESE 17:57:41 15° NE
Cosmos 1812 2.8 17:49:35 10° SSW 17:53:27 78° W 17:57:20 10° N
Cosmos 2322 Rocket 4.5 17:54:50 10° WNW 17:58:07 15° NW 18:01:24 10° N
Cosmos 921 Rocket 3.4 17:57:12 10° N 18:01:12 38° ENE 18:04:17 16° SE
Sich 1 Rocket 4.2 17:57:19 10° N 18:01:17 31° ENE 18:05:13 10° SE
SKYMED 2 3.9 18:00:06 22° NE 18:02:30 43° E 18:06:38 10° S
Meteor 1-11 Rocket 4.4 17:57:38 10° NNW 18:03:33 62° W 18:09:23 10° S
Cosmos 1782 Rocket 3.8 18:00:14 10° N 18:04:24 43° ENE 18:08:32 10° SSE
NOSS 0 Rocket 3.9 17:58:25 10° SSW 18:04:39 88° WNW 18:10:05 14° NNE
Cosmos 2251 Rocket 3.6 18:00:34 10° SSW 18:05:52 77° WNW 18:10:49 12° NNE
USA 215 3.6 18:02:28 20° NE 18:07:05 59° NNW 18:13:27 10° W
Cosmos 2219 Rocket 3.1 18:01:58 10° SW 18:07:20 45° NW 18:12:47 10° NNE
Meteor 1-27 Rocket 3.9 18:02:45 10° SSW 18:08:29 78° WNW 18:14:23 10° N
YAOGAN 6 2.4 18:05:13 10° SSE 18:08:42 63° ENE 18:12:16 10° N
RESURS DK-1 3.6 18:07:34 10° WSW 18:11:25 37° NW 18:14:31 15° N
Cosmos 1862 Rocket 4.3 18:09:37 10° SSW 18:13:52 53° WNW 18:18:11 10° N
Cosmos 2195 Rocket 4.4 18:08:51 10° S 18:14:59 65° E 18:21:13 10° NNE
ISS -1.8 18:12:38 10° W 18:15:35 28° SW 18:18:22 11° SSE
Cosmos 614 Rocket 4.4 18:11:02 10° SSE 18:15:39 36° ESE 18:16:23 35° E
Cosmos 1703 Rocket 3.5 18:12:18 10° S 18:16:43 62° E 18:19:20 24° NNE
Envisat 3.2 18:15:37 10° S 18:20:41 71° WSW 18:25:47 10° NNW
ATLAS 5 CENTAUR R/B 1.6 18:18:39 10° SW 18:20:19 45° WSW 18:20:19 45° WSW
Cosmos 2242 Rocket 3.9 18:16:29 10° SSW 18:21:02 72° W 18:25:38 10° N
Cosmos 1943 Rocket 3.0 18:16:26 10° NNW 18:21:11 30° NE 18:21:11 30° NE
STARLINK-67 4.4 18:20:04 10° WNW 18:21:50 24° NNW 18:21:50 24° NNW
Cosmos 1092 Rocket 3.9 18:16:18 10° S 18:22:37 86° E 18:28:55 10° N
Cosmos 1980 3.8 18:18:14 10° SSW 18:23:52 74° WNW 18:27:59 19° NNE
STARLINK-60 3.4 18:20:54 10° SW 18:24:03 52° SSE 18:24:03 52° SSE
Cosmos 1441 Rocket 3.0 18:22:11 10° N 18:26:03 84° ENE 18:29:49 10° SSE
Exosat Rocket 4.2 18:21:45 10° SW 18:26:52 53° WNW 18:30:49 16° NNE
Cosmos 2297 3.6 18:22:57 10° NNW 18:28:42 76° ENE 18:34:22 10° SSE
CSL-04 Rocket 3.5 18:23:50 10° SSE 18:29:04 69° ENE 18:34:20 10° N
Okean-O 3.7 18:26:03 10° S 18:30:19 47° W 18:34:37 10° NNW
Cosmos 1140 Rocket 4.4 18:26:07 10° SSE 18:29:29 30° SE 18:29:29 30° SE
Cosmos 407 Rocket 3.7 18:25:59 10° S 18:30:56 48° ESE 18:31:32 46° E
Cosmos 1536 4.4 18:28:00 10° NNW 18:31:44 37° W 18:35:25 10° SSW
Meteor 1-18 Rocket 4.3 18:28:50 10° S 18:34:23 54° E 18:36:16 37° NE
Shenzhou-11 Module 4.0 18:33:49 10° WSW 18:35:34 21° SSW 18:35:34 21° SSW
Cosmos 1867 3.6 18:34:34 10° NNW 18:39:58 56° NE 18:40:36 52° ENE
NOSS 3-1 (C) 4.4 18:35:02 10° NW 18:41:42 40° NNE 18:43:13 37° ENE
COSMOS 2428 4.3 18:36:58 10° WSW 18:41:52 29° NW 18:46:22 12° N
CSL-04 Debris 4.1 18:38:41 10° SSE 18:44:09 90° WSW 18:49:38 10° NNW
CZ-4 R/B 1.8 18:42:57 10° S 18:46:49 60° W 18:50:39 10° NNW
Lacrosse 5 rocket 2.1 18:42:49 10° W 18:46:49 41° NNW 18:47:04 40° NNW
Genesis I 3.4 18:44:41 10° NW 18:48:34 66° SW 18:48:34 66° SW
USA 229 DEB 4.2 18:43:10 10° NW 18:49:55 42° NE 18:50:47 41° NE
USA 229 4.2 18:43:17 10° NW 18:50:01 42° NE 18:50:51 41° NE
COSMO-SKYMED 1 2.9 18:48:38 31° N 18:50:33 63° WNW 18:54:51 10° SSW
USA 116 4.3 18:50:07 34° NNE 18:52:31 87° ESE 18:57:40 10° SSW
S3M 3.9 18:46:52 10° N 18:53:03 61° ENE 18:59:07 10° SSE
Okean 1 4.3 18:51:20 10° S 18:53:50 38° S 18:53:50 38° S
SL-4 R/B 2.8 18:51:42 10° WNW 18:54:45 43° NW 18:54:45 43° NW
Aureole 1 Rocket 4.2 18:54:52 10° SW 18:56:34 27° WSW 18:56:34 27° WSW
YAOGAN 1 3.0 18:54:53 10° S 18:59:09 60° WSW 19:03:27 10° NNW
Meteor 2-9 Rocket 4.1 18:53:18 10° N 18:59:12 71° ENE 19:00:31 53° SE
Ariane Rocket 4.4 19:06:32 26° N 19:06:32 26° N 19:08:46 10° N
NOAA 11 4.2 19:00:21 10° S 19:05:48 79° WSW 19:11:20 10° NNW
Cosmos 1553 Rocket 4.0 19:00:19 10° N 19:06:42 86° W 19:13:07 10° S
Okean 1-7 4.0 19:04:35 10° SSW 19:08:45 46° WNW 19:09:54 37° NW
SeaSat 1 4.2 19:24:59 23° NNW 19:24:59 23° NNW 19:26:51 10° NNW
Cosmos 1190 Rocket 4.3 19:18:08 10° SSW 19:22:33 62° SW 19:22:33 62° SW
Cosmos 2369 Rocket 3.2 19:18:29 10° NNW 19:21:43 35° N 19:21:43 35° N
SL-16 R/B 2.4 19:20:04 10° SW 19:25:44 68° WNW 19:25:57 67° NW
ATLAS 2AS CENTAUR R/B 4.3 19:26:14 10° WNW 19:32:49 27° NNW 19:34:49 24° NNE
Cosmos 2237 Rocket 3.9 19:32:46 10° WSW 19:37:34 27° NW 19:39:32 22° NNW
Cosmos 2344 4.2 19:39:16 10° NW 19:48:38 72° NE 19:50:07 66° E
USA 215 4.0 19:49:49 40° N 19:49:49 40° N 19:55:28 10° WNW
Cosmos 1655 Rocket 4.4 19:45:30 10° SSW 19:51:29 60° W 19:51:29 60° W
Cosmos 1943 Rocket 3.8 19:59:56 10° NW 20:02:45 29° NW 20:02:45 29° NW
